User: anonymous   Login
Location: Frydek-Mistek
(49.6830°N, 18.3330°E)
Time: 06:07:20
(UTC+02:00)
Language:

Courier 1B Rocket - Orbit

View from above orbital plane
View from above orbital plane
View from above satellite
View from above satellite

Ground track
Ground track

The orbit data is extracted from the following two-line orbital elements,

1    59U 60013B   17231.04266621 +.00000086 +00000-0 -68195-5 0  9994
2    59 028.2494 126.5073 0189321 252.6120 105.3640 13.52952552806542
Epoch (UTC): 19 August 2017 01:01:26
Eccentricity: 0.0189321
inclination: 28.2494°
perigee height: 920 km
apogee height: 1202 km
right ascension of ascending node: 126.5073°
argument of perigee: 252.6120°
revolutions per day: 13.52952552
mean anomaly at epoch: 105.3640°
orbit number at epoch: 80654

The dashed part of the orbit path shows where the satellite is in the earth's shadow,  

DLR